Location: Cruquius
(52.3348°N, 4.6319°E)
Time: 19:27:44
(UTC+00:00)

Cosmos 1378 - Pass Details

Date: 12 May 2021
Orbit: 490 x 499 km, 82.5° (Epoch: 20 June)

Event Time Altitude Azimuth Distance (km) Brightness Sun altitude
Exits shadow 23:13:31 38° 114° (ESE) 769 3.8 -19.1°
Maximum altitude 23:13:59 40° 94° (E) 741 3.8 -19.1°
Drops below altitude 10° 23:17:30 10° 24° (NNE) 1,708 6.7 -19.1°
Sets 23:19:42 0° 17° (NNE) 2,598 8.0 -19.2°
